sat.trackr.live / text

‹ back to catalog

KUIPER-00058

NORAD 64518 · 2025-134U

PAYLOAD ACTIVE UNKNOWN

§ Identity

Operator
Country
US
Launch date
2025-06-23
Launch site
AFETR
Launch vehicle
Mass (kg)
RCS (m²)

External: N2YO · Heavens-Above · Gunter

§ Orbital elements

Epoch: 2026-09-21T21:07:18.481728Z

Period
97.30 min
Inclination
51.9003°
Eccentricity
0.0000744
Mean motion
14.79932135 rev/d
Perigee alt
629.0 km
Apogee alt
630.1 km
Semi-major
7,007.7 km
B*
4.5743e-5
RAAN
77.9935°
Arg perigee
119.9588°
Mean anomaly
240.1448°
Rev number
6,923

§ Raw data

KUIPER-000581 64518U 25134U   26264.88007502  .00000128  00000+0  45743-4 0  99962 64518  51.9003  77.9935 0000744 119.9588 240.1448 14.79932135 69237

JSON: /api/v1/satellites/64518 · /tle

For live sub-satellite position, see the globe view (requires WebGL).

§ Visibility from observer

Set your observer location to see the next 7 days of passes ≥ 10°. The values pass through the URL so the page stays shareable.

No JS? Fill the form by hand. The geolocation button needs JavaScript.